Fulton, NY

2:57 AM EDT on July 25, 2016 (GMT -0400)
Oswego County

Weather History for KFZY - August, 2013

Change the Weather History Date:

Friday, August 2, 2013

  Actual Average (KSYR) Record (KSYR)
Temperature  
Mean Temperature 65 °F 71 °F  
Max Temperature 75 °F 81 °F 98 °F (2002)
Min Temperature 57 °F 61 °F 45 °F (1947)
Degree Days  
Heating Degree Days 0 0  
Month to date heating degree days 0  
Since 1 June heating degree days 69  
Since 1 July heating degree days 8  
Cooling Degree Days 0 6  
Month to date cooling degree days 12  
Year to date cooling degree days 358  
Since 1 June cooling degree days 328  
Growing Degree Days 15 (Base 50)    
Moisture  
Dew Point 59 °F    
Average Humidity 80    
Maximum Humidity 100    
Minimum Humidity 57    
Precipitation  
Precipitation 0.06 in 0.12 in 1.23 in (2009)
Month to date precipitation 0.24  
Year to date precipitation 21.26  
Snow  
Snow 0.00 in 0.00 in 0.00 in (2002)
Month to date snowfall 0.0  
Since 1 June snowfall 0.0  
Since 1 July snowfall 0.0  
Snow Depth -    
Sea Level Pressure  
Sea Level Pressure 29.86 in    
Wind  
Wind Speed 3 mph (SW)    
Max Wind Speed 13 mph    
Max Gust Speed 20 mph    
Visibility 8 miles    
Events Fog , Rain , Thunderstorm    
T = Trace of Precipitation, MM = Missing Value Source: NWS Daily Summary

Daily Weather History Graph

Daily Weather History Graph

Search for Another Location

Airport or City:

Trip Planner

Search our weather history database for the weather conditions in past years. The results will help you decide how hot, cold, wet, or windy it might be!

Date:

Astronomy

Aug. 02, 2013 Rise Set
Actual Time 5:56 AM EDT 8:26 PM EDT
Civil Twilight 5:24 AM EDT 8:58 PM EDT
Nautical Twilight 4:44 AM EDT 9:38 PM EDT
Astronomical Twilight 3:58 AM EDT 10:23 PM EDT
Moon 2:14 AM EDT (8/2) 5:23 PM EDT (8/2)
Length of Visible Light 15h 33m
Length of Day
14h 29m
Waning Crescent, 16% of the Moon is Illuminated
Aug 2
Waning Crescent
Aug 6
New
Aug 14
First Quarter
Aug 20
Full
Aug 28
Last Quarter

Hourly Weather History & Observations

Time (EDT) Temp. Dew Point Humidity Pressure Visibility Wind Dir Wind Speed Gust Speed Precip Events Conditions
12:54 AM 62.1 °F 59.0 °F 90% 29.84 in 10.0 mi SW 4.6 mph - N/A   Clear
1:54 AM 60.1 °F 57.0 °F 90% 29.84 in 9.0 mi Calm Calm - N/A   Clear
2:54 AM 60.1 °F 57.9 °F 93% 29.83 in 9.0 mi Calm Calm - N/A   Mostly Cloudy
3:54 AM 61.0 °F 59.0 °F 93% 29.84 in 7.0 mi Calm Calm - N/A   Clear
4:50 AM 61.0 °F 59.0 °F 93% 29.85 in 1.8 mi Calm Calm - 0.01 in   Clear
5:01 AM 60.8 °F 57.2 °F 88% 29.85 in 0.8 mi Calm Calm - N/A   Clear
5:33 AM 60.8 °F 57.2 °F 88% 29.85 in 1.2 mi Calm Calm - N/A   Clear
5:44 AM 59.0 °F 57.2 °F 94% 29.86 in 0.8 mi Calm Calm - N/A   Clear
5:54 AM 57.9 °F 57.0 °F 97% 29.85 in 0.2 mi Calm Calm - N/A Fog Fog
6:31 AM 59.0 °F 57.2 °F 94% 29.87 in 0.2 mi Calm Calm - N/A Fog Fog
6:54 AM 59.0 °F 57.9 °F 96% 29.87 in 2.0 mi Calm Calm - N/A   Clear
7:04 AM 60.8 °F 60.8 °F 100% 29.87 in 4.0 mi Calm Calm - N/A   Clear
7:54 AM 64.0 °F 61.0 °F 90% 29.88 in 10.0 mi Calm Calm - N/A   Clear
8:54 AM 69.1 °F 61.0 °F 75% 29.89 in 10.0 mi WSW 3.5 mph - N/A   Clear
9:54 AM 71.1 °F 59.0 °F 66% 29.90 in 10.0 mi SW 5.8 mph - N/A   Clear
10:54 AM 73.0 °F 57.9 °F 59% 29.88 in 10.0 mi West 5.8 mph - N/A   Partly Cloudy
11:54 AM 73.9 °F 59.0 °F 59% 29.87 in 10.0 mi Variable 5.8 mph - N/A   Scattered Clouds
12:54 PM 73.9 °F 57.9 °F 57% 29.86 in 10.0 mi South 5.8 mph - N/A   Mostly Cloudy
1:46 PM 69.8 °F 60.8 °F 73% 29.88 in 9.0 mi SSW 4.6 mph - 0.01 in Rain , Thunderstorm Light Rain
1:54 PM 70.0 °F 62.1 °F 76% 29.87 in 8.0 mi SW 3.5 mph - 0.01 in Rain , Thunderstorm Light Rain
2:04 PM 69.8 °F 62.6 °F 78% 29.88 in 8.0 mi SW 3.5 mph - 0.01 in Rain Light Rain
2:11 PM 71.6 °F 64.4 °F 78% 29.88 in 10.0 mi WSW 5.8 mph - 0.01 in Rain , Thunderstorm Light Rain
2:30 PM 71.6 °F 60.8 °F 69% 29.86 in 10.0 mi West 5.8 mph - 0.01 in   Mostly Cloudy
2:54 PM 73.0 °F 62.1 °F 68% 29.87 in 10.0 mi West 10.4 mph 19.6 mph 0.01 in Rain Light Rain
3:54 PM 72.0 °F 59.0 °F 64% 29.85 in 10.0 mi SSW 12.7 mph - 0.00 in   Overcast
4:54 PM 70.0 °F 55.9 °F 61% 29.85 in 10.0 mi SSW 6.9 mph - N/A   Overcast
5:54 PM 70.0 °F 59.0 °F 68% 29.85 in 10.0 mi SSW 3.5 mph - N/A   Overcast
6:54 PM 70.0 °F 57.9 °F 65% 29.86 in 10.0 mi WSW 9.2 mph - 0.00 in   Overcast
7:54 PM 68.0 °F 59.0 °F 73% 29.85 in 10.0 mi SSW 5.8 mph - N/A   Overcast
8:54 PM 64.9 °F 59.0 °F 81% 29.85 in 10.0 mi SSW 4.6 mph - N/A   Clear
9:54 PM 61.0 °F 59.0 °F 93% 29.86 in 10.0 mi South 3.5 mph - N/A   Clear
10:54 PM 61.0 °F 57.9 °F 90% 29.86 in 10.0 mi Calm Calm - N/A   Clear
11:54 PM 62.1 °F 59.0 °F 90% 29.85 in 6.0 mi South 3.5 mph - 0.03 in Rain Light Rain